Location: Krasnoyarskiy Pitomnik
(51.1333°N, 71.6167°E)
Time: 10:15:31
(UTC+00:00)

Cosmos 2123 Rocket - Pass Details

Date: 22 October 2021
Orbit: 961 x 992 km, 82.9° (Epoch: 06 December)

Event Time Altitude Azimuth Distance (km) Brightness Sun altitude
Rises 13:31:12 0° 349° (N) 3,722 7.2 -13.9°
Reaches altitude 10° 13:33:44 10° 349° (N) 2,768 6.5 -14.3°
Maximum altitude 13:40:07 86° 263° (W) 1,000 4.1 -15.3°
Drops below altitude 10° 13:46:25 10° 175° (S) 2,736 6.3 -16.3°
Sets 13:48:54 0° 175° (S) 3,676 6.9 -16.7°
